Location: Nelson
(41.2830°S, 173.2830°E)
Time: 18:15:00
(UTC+13:00)

SeaSat 1 - Pass Details

Date: 24 January 2019
Orbit: 745 x 747 km, 108.0° (Epoch: 18 October)

Event Time Altitude Azimuth Distance (km) Brightness Sun altitude
Rises 23:34:55 0° 151° (SSE) 3,225 6.1 -23.0°
Reaches altitude 10° 23:37:14 10° 148° (SSE) 2,293 5.3 -23.2°
Maximum altitude 23:42:11 64° 66° (ENE) 837 2.4 -23.7°
Enters shadow 23:42:18 64° 58° (ENE) 838 2.4 -23.7°
